SWA191 KDAL-KLAX

Flight info

Callsign SWA191
Flight time 3h 12m
Altitude 36000
Route SNSET4 BRHMA CNX PYRIT J78 DRK J231 HIPPI GABBL HLYWD1
Aircraft B738/M-SADE2E3GIJ4RWZ/LB1D1

Departure

Time 2026-05-05 15:07
Airport Dallas Love Field (KDAL)

Arrival

Time 2026-05-05 18:19
Airport Los Angeles International Airport (KLAX)
Time Latitude Longitude Altitude Speed Heading
2026-05-05 14:09 32.84650 -96.84940 486 ft 0 kts 180°
2026-05-05 14:57 32.84664 -96.84940 486 ft 2 kts 180°
2026-05-05 14:57 32.84679 -96.84939 486 ft 2 kts 180°
2026-05-05 14:57 32.84694 -96.84939 486 ft 2 kts 181°
2026-05-05 14:58 32.84710 -96.84939 486 ft 2 kts 189°
2026-05-05 14:58 32.84723 -96.84932 486 ft 2 kts 212°
2026-05-05 14:58 32.84734 -96.84920 486 ft 2 kts 233°
2026-05-05 14:58 32.84742 -96.84905 487 ft 2 kts 253°
2026-05-05 14:59 32.84743 -96.84888 487 ft 1 kts 274°
2026-05-05 14:59 32.84743 -96.84884 487 ft 0 kts 274°
2026-05-05 15:01 32.84745 -96.84923 487 ft 9 kts 271°
2026-05-05 15:01 32.84745 -96.85017 486 ft 11 kts 269°
2026-05-05 15:01 32.84745 -96.85111 485 ft 11 kts 270°
2026-05-05 15:01 32.84745 -96.85207 484 ft 12 kts 270°
2026-05-05 15:02 32.84758 -96.85298 483 ft 10 kts 304°
2026-05-05 15:02 32.84807 -96.85359 483 ft 9 kts 304°
2026-05-05 15:02 32.84795 -96.85429 483 ft 10 kts 231°
2026-05-05 15:02 32.84737 -96.85498 482 ft 12 kts 224°
2026-05-05 15:03 32.84677 -96.85569 481 ft 11 kts 232°
2026-05-05 15:03 32.84683 -96.85644 481 ft 9 kts 311°
2026-05-05 15:03 32.84729 -96.85698 481 ft 8 kts 317°
2026-05-05 15:03 32.84769 -96.85744 481 ft 7 kts 316°
2026-05-05 15:04 32.84807 -96.85786 480 ft 7 kts 316°
2026-05-05 15:04 32.84855 -96.85842 480 ft 11 kts 315°
2026-05-05 15:04 32.84920 -96.85919 480 ft 13 kts 315°
2026-05-05 15:04 32.84987 -96.85996 479 ft 12 kts 315°
2026-05-05 15:05 32.85135 -96.86168 477 ft 14 kts 316°
2026-05-05 15:05 32.85183 -96.86240 477 ft 9 kts 277°
2026-05-05 15:05 32.85153 -96.86304 476 ft 9 kts 219°
2026-05-05 15:06 32.85072 -96.86277 476 ft 26 kts 138°
2026-05-05 15:06 32.84765 -96.85921 480 ft 94 kts 136°
2026-05-05 15:06 32.84158 -96.85214 481 ft 148 kts 136°
2026-05-05 15:06 32.83293 -96.84305 692 ft 175 kts 144°
2026-05-05 15:07 32.82376 -96.83318 1315 ft 184 kts 140°
2026-05-05 15:07 32.81464 -96.82226 2043 ft 187 kts 143°
2026-05-05 15:07 32.80493 -96.81134 2400 ft 203 kts 142°
2026-05-05 15:07 32.79450 -96.79903 2829 ft 218 kts 141°
2026-05-05 15:08 32.78354 -96.78542 3166 ft 239 kts 139°
2026-05-05 15:08 32.77126 -96.77062 3518 ft 256 kts 147°
2026-05-05 15:08 32.75561 -96.76126 4046 ft 254 kts 175°
2026-05-05 15:08 32.73831 -96.76311 4544 ft 252 kts 208°
2026-05-05 15:09 32.72422 -96.77519 5148 ft 253 kts 231°
2026-05-05 15:09 32.71519 -96.79299 5819 ft 253 kts 253°
2026-05-05 15:09 32.71285 -96.81367 6518 ft 255 kts 271°
2026-05-05 15:09 32.71347 -96.83456 7200 ft 255 kts 271°
2026-05-05 15:10 32.71310 -96.85550 7877 ft 257 kts 266°
2026-05-05 15:10 32.71168 -96.87669 8562 ft 260 kts 265°
2026-05-05 15:10 32.70979 -96.89809 9248 ft 260 kts 264°
2026-05-05 15:10 32.70780 -96.91952 9927 ft 263 kts 264°
2026-05-05 15:11 32.70583 -96.94115 10510 ft 272 kts 264°
2026-05-05 15:11 32.70380 -96.96404 10949 ft 287 kts 264°
2026-05-05 15:11 32.70169 -96.98817 11370 ft 299 kts 264°
2026-05-05 15:11 32.69952 -97.01298 11940 ft 305 kts 264°
2026-05-05 15:12 32.69713 -97.03804 12509 ft 307 kts 263°
2026-05-05 15:12 32.69357 -97.06327 13078 ft 310 kts 259°
2026-05-05 15:12 32.68911 -97.08839 13656 ft 311 kts 258°
2026-05-05 15:12 32.68438 -97.11340 14241 ft 311 kts 258°
2026-05-05 15:13 32.67972 -97.13822 14819 ft 311 kts 259°
2026-05-05 15:13 32.67511 -97.16335 15403 ft 312 kts 259°
2026-05-05 15:13 32.67058 -97.18855 15990 ft 314 kts 260°
2026-05-05 15:13 32.66609 -97.21386 16573 ft 316 kts 260°
2026-05-05 15:14 32.66269 -97.23984 17171 ft 314 kts 266°
2026-05-05 15:14 32.66311 -97.26565 17758 ft 316 kts 277°
2026-05-05 15:14 32.66769 -97.29113 18335 ft 317 kts 283°
2026-05-05 15:14 32.67381 -97.31613 18913 ft 318 kts 284°
2026-05-05 15:15 32.68040 -97.34129 19494 ft 320 kts 284°
2026-05-05 15:15 32.68696 -97.36651 20076 ft 321 kts 284°
2026-05-05 15:15 32.69344 -97.39181 20661 ft 321 kts 284°
2026-05-05 15:15 32.69983 -97.41711 21235 ft 322 kts 284°
2026-05-05 15:16 32.70625 -97.44270 21815 ft 324 kts 284°
2026-05-05 15:16 32.71262 -97.46822 22395 ft 324 kts 283°
2026-05-05 15:16 32.71903 -97.49396 22981 ft 324 kts 283°
2026-05-05 15:16 32.72536 -97.51945 23562 ft 325 kts 283°
2026-05-05 15:17 32.73181 -97.54543 24155 ft 325 kts 283°
2026-05-05 15:17 32.73815 -97.57107 24718 ft 326 kts 283°
2026-05-05 15:17 32.74454 -97.59693 25121 ft 330 kts 284°
2026-05-05 15:17 32.75111 -97.62361 25396 ft 338 kts 284°
2026-05-05 15:18 32.75781 -97.65079 25666 ft 346 kts 283°
2026-05-05 15:18 32.76464 -97.67851 25936 ft 354 kts 283°
2026-05-05 15:18 32.77160 -97.70677 26208 ft 361 kts 283°
2026-05-05 15:18 32.77868 -97.73555 26476 ft 369 kts 283°
2026-05-05 15:19 32.78583 -97.76530 26752 ft 376 kts 283°
2026-05-05 15:19 32.79290 -97.79528 27024 ft 382 kts 283°
2026-05-05 15:19 32.80007 -97.82597 27415 ft 382 kts 282°
2026-05-05 15:19 32.80712 -97.85620 27810 ft 381 kts 282°
2026-05-05 15:20 32.81418 -97.88638 28205 ft 378 kts 282°
2026-05-05 15:20 32.82123 -97.91661 28603 ft 377 kts 282°
2026-05-05 15:20 32.82815 -97.94637 28998 ft 377 kts 282°
2026-05-05 15:20 32.83518 -97.97662 29403 ft 376 kts 283°
2026-05-05 15:21 32.84215 -98.00657 29808 ft 374 kts 282°
2026-05-05 15:21 32.84900 -98.03599 30208 ft 370 kts 282°
2026-05-05 15:21 32.85580 -98.06531 30607 ft 369 kts 282°
2026-05-05 15:21 32.86266 -98.09490 31014 ft 366 kts 282°
2026-05-05 15:22 32.86933 -98.12372 31408 ft 365 kts 282°
2026-05-05 15:22 32.87614 -98.15311 31818 ft 364 kts 282°
2026-05-05 15:22 32.88279 -98.18189 32216 ft 363 kts 282°
2026-05-05 15:22 32.88943 -98.21059 32616 ft 361 kts 282°
2026-05-05 15:23 32.89609 -98.23943 33024 ft 358 kts 282°
2026-05-05 15:23 32.90263 -98.26781 33477 ft 357 kts 282°
2026-05-05 15:23 32.90919 -98.29627 33936 ft 356 kts 281°
2026-05-05 15:23 32.91570 -98.32452 34401 ft 354 kts 282°
2026-05-05 15:24 32.92218 -98.35263 34865 ft 351 kts 281°
2026-05-05 15:24 32.92860 -98.38054 35332 ft 349 kts 281°
2026-05-05 15:24 32.93502 -98.40839 35730 ft 348 kts 282°
2026-05-05 15:25 32.94791 -98.46472 35756 ft 351 kts 281°
2026-05-05 15:25 32.96069 -98.52054 35751 ft 348 kts 281°
2026-05-05 15:26 32.97358 -98.57697 35753 ft 348 kts 281°
2026-05-05 15:26 32.98632 -98.63294 35755 ft 349 kts 281°
2026-05-05 15:27 32.99902 -98.68883 35759 ft 350 kts 281°
2026-05-05 15:27 33.01169 -98.74474 35759 ft 347 kts 281°
2026-05-05 15:28 33.02427 -98.80042 35765 ft 349 kts 281°
2026-05-05 15:28 33.03680 -98.85592 35762 ft 348 kts 280°
2026-05-05 15:29 33.04946 -98.91213 35766 ft 349 kts 281°
2026-05-05 15:29 33.06189 -98.96748 35764 ft 349 kts 281°
2026-05-05 15:30 33.07438 -99.02318 35765 ft 348 kts 281°
2026-05-05 15:30 33.08694 -99.07925 35766 ft 348 kts 281°
2026-05-05 15:31 33.09932 -99.13467 35772 ft 348 kts 280°
2026-05-05 15:31 33.11179 -99.19071 35784 ft 350 kts 280°
2026-05-05 15:32 33.12425 -99.24670 35788 ft 348 kts 280°
2026-05-05 15:32 33.13664 -99.30255 35793 ft 348 kts 280°
2026-05-05 15:33 33.14899 -99.35830 35795 ft 349 kts 280°
2026-05-05 15:33 33.16138 -99.41444 35790 ft 348 kts 280°
2026-05-05 15:34 33.17366 -99.47028 35788 ft 347 kts 280°
2026-05-05 15:34 33.18591 -99.52610 35788 ft 348 kts 280°
2026-05-05 15:35 33.19812 -99.58180 35790 ft 347 kts 279°
2026-05-05 15:35 33.21056 -99.63775 35793 ft 350 kts 280°
2026-05-05 15:36 33.22341 -99.69398 35798 ft 348 kts 279°
2026-05-05 15:36 33.23616 -99.74988 35792 ft 348 kts 279°
2026-05-05 15:37 33.24880 -99.80561 35798 ft 348 kts 280°
2026-05-05 15:37 33.26142 -99.86149 35794 ft 349 kts 279°
2026-05-05 15:38 33.27401 -99.91750 35805 ft 347 kts 279°
2026-05-05 15:38 33.28658 -99.97339 35818 ft 348 kts 280°
2026-05-05 15:39 33.29917 -100.02948 35819 ft 348 kts 279°
2026-05-05 15:39 33.31160 -100.08511 35823 ft 349 kts 279°
2026-05-05 15:40 33.32422 -100.14158 35823 ft 348 kts 279°
2026-05-05 15:40 33.33664 -100.19737 35826 ft 349 kts 279°
2026-05-05 15:41 33.34914 -100.25362 35825 ft 348 kts 279°
2026-05-05 15:41 33.36161 -100.30988 35833 ft 350 kts 279°
2026-05-05 15:42 33.37403 -100.36600 35834 ft 347 kts 279°
2026-05-05 15:42 33.38634 -100.42181 35835 ft 349 kts 279°
2026-05-05 15:43 33.39869 -100.47800 35845 ft 347 kts 279°
2026-05-05 15:43 33.41104 -100.53414 35846 ft 347 kts 279°
2026-05-05 15:44 33.42332 -100.59026 35849 ft 350 kts 279°
2026-05-05 15:44 33.43562 -100.64651 35846 ft 348 kts 279°
2026-05-05 15:45 33.44789 -100.70278 35850 ft 348 kts 278°
2026-05-05 15:45 33.46006 -100.75878 35854 ft 348 kts 278°
2026-05-05 15:46 33.47229 -100.81516 35859 ft 348 kts 278°
2026-05-05 15:46 33.48435 -100.87089 35861 ft 346 kts 278°
2026-05-05 15:47 33.49647 -100.92696 35866 ft 347 kts 278°
2026-05-05 15:47 33.50858 -100.98302 35867 ft 347 kts 278°
2026-05-05 15:48 33.52068 -101.03925 35868 ft 347 kts 278°
2026-05-05 15:48 33.53225 -101.09506 35875 ft 346 kts 277°
2026-05-05 15:49 33.54354 -101.15144 35881 ft 347 kts 277°
2026-05-05 15:49 33.55480 -101.20763 35890 ft 345 kts 277°
2026-05-05 15:50 33.56609 -101.26395 35897 ft 347 kts 277°
2026-05-05 15:50 33.57735 -101.31993 35903 ft 346 kts 277°
2026-05-05 15:51 33.58855 -101.37591 35907 ft 346 kts 277°
2026-05-05 15:51 33.59977 -101.43210 35913 ft 345 kts 277°
2026-05-05 15:52 33.61093 -101.48817 35914 ft 346 kts 277°
2026-05-05 15:52 33.62219 -101.54480 35914 ft 347 kts 277°
2026-05-05 15:53 33.63334 -101.60083 35912 ft 344 kts 277°
2026-05-05 15:53 33.64446 -101.65705 35911 ft 347 kts 276°
2026-05-05 15:54 33.65555 -101.71311 35897 ft 344 kts 277°
2026-05-05 15:54 33.66662 -101.76939 35897 ft 347 kts 276°
2026-05-05 15:55 33.67767 -101.82572 35893 ft 345 kts 276°
2026-05-05 15:55 33.68866 -101.88190 35892 ft 347 kts 276°
2026-05-05 15:56 33.69966 -101.93833 35892 ft 347 kts 276°
2026-05-05 15:56 33.71062 -101.99438 35897 ft 346 kts 276°
2026-05-05 15:57 33.72161 -102.05082 35909 ft 346 kts 276°
2026-05-05 15:57 33.73253 -102.10724 35912 ft 344 kts 276°
2026-05-05 15:58 33.74332 -102.16320 35918 ft 345 kts 276°
2026-05-05 15:58 33.75419 -102.21956 35923 ft 347 kts 276°
2026-05-05 15:59 33.76501 -102.27579 35924 ft 345 kts 276°
2026-05-05 15:59 33.77580 -102.33204 35933 ft 346 kts 276°
2026-05-05 16:00 33.78659 -102.38850 35938 ft 346 kts 276°
2026-05-05 16:00 33.79729 -102.44469 35939 ft 348 kts 275°
2026-05-05 16:01 33.80808 -102.50144 35940 ft 346 kts 276°
2026-05-05 16:01 33.81874 -102.55755 35937 ft 346 kts 275°
2026-05-05 16:02 33.82943 -102.61401 35947 ft 347 kts 276°
2026-05-05 16:02 33.84014 -102.67069 35947 ft 347 kts 275°
2026-05-05 16:03 33.85081 -102.72751 35951 ft 347 kts 275°
2026-05-05 16:03 33.86147 -102.78410 35956 ft 345 kts 275°
2026-05-05 16:04 33.87199 -102.84039 35957 ft 345 kts 275°
2026-05-05 16:04 33.88257 -102.89687 35959 ft 346 kts 274°
2026-05-05 16:05 33.89316 -102.95360 35961 ft 347 kts 274°
2026-05-05 16:05 33.90368 -103.01032 35960 ft 347 kts 274°
2026-05-05 16:06 33.91412 -103.06679 35971 ft 346 kts 274°
2026-05-05 16:06 33.92464 -103.12372 35981 ft 346 kts 274°
2026-05-05 16:07 33.93508 -103.18043 35984 ft 346 kts 274°
2026-05-05 16:07 33.94544 -103.23679 35985 ft 347 kts 274°
2026-05-05 16:08 33.95585 -103.29349 35982 ft 343 kts 274°
2026-05-05 16:08 33.96613 -103.34983 35975 ft 346 kts 274°
2026-05-05 16:09 33.97637 -103.40613 35973 ft 345 kts 274°
2026-05-05 16:09 33.98666 -103.46268 35975 ft 345 kts 274°
2026-05-05 16:10 33.99692 -103.51926 35977 ft 346 kts 274°
2026-05-05 16:10 34.00716 -103.57597 35981 ft 345 kts 274°
2026-05-05 16:11 34.01736 -103.63254 35983 ft 347 kts 274°
2026-05-05 16:12 34.03763 -103.74536 35982 ft 345 kts 273°
2026-05-05 16:13 34.06285 -103.88680 35983 ft 345 kts 274°
2026-05-05 16:13 34.07290 -103.94346 35982 ft 344 kts 274°
2026-05-05 16:14 34.09289 -104.05671 35985 ft 344 kts 272°
2026-05-05 16:15 34.11281 -104.16996 35983 ft 347 kts 272°
2026-05-05 16:16 34.13262 -104.28303 35982 ft 345 kts 273°
2026-05-05 16:17 34.14745 -104.36836 35992 ft 345 kts 272°
2026-05-05 16:18 34.16214 -104.45368 35990 ft 347 kts 273°
2026-05-05 16:19 34.17697 -104.53946 35991 ft 347 kts 272°
2026-05-05 16:19 34.19170 -104.62537 35993 ft 348 kts 273°
2026-05-05 16:20 34.21129 -104.73972 35998 ft 347 kts 272°
2026-05-05 16:22 34.23551 -104.88292 36008 ft 347 kts 271°
2026-05-05 16:23 34.25481 -104.99737 36020 ft 349 kts 272°
2026-05-05 16:23 34.26923 -105.08336 36016 ft 349 kts 272°
2026-05-05 16:24 34.27888 -105.14099 36021 ft 348 kts 271°
2026-05-05 16:25 34.29316 -105.22680 36026 ft 345 kts 271°
2026-05-05 16:25 34.30738 -105.31290 36032 ft 345 kts 272°
2026-05-05 16:26 34.32618 -105.42722 36033 ft 350 kts 271°
2026-05-05 16:27 34.33564 -105.48480 36032 ft 347 kts 272°
2026-05-05 16:27 34.34502 -105.54201 36031 ft 348 kts 272°
2026-05-05 16:28 34.35445 -105.59978 36037 ft 348 kts 271°
2026-05-05 16:28 34.36372 -105.65726 36044 ft 347 kts 271°
2026-05-05 16:29 34.37226 -105.71493 36044 ft 346 kts 269°
2026-05-05 16:29 34.37910 -105.77238 36047 ft 342 kts 269°
2026-05-05 16:30 34.38591 -105.82970 36047 ft 346 kts 269°
2026-05-05 16:30 34.39297 -105.88754 36045 ft 347 kts 269°
2026-05-05 16:31 34.40003 -105.94502 36044 ft 347 kts 269°
2026-05-05 16:31 34.40706 -106.00265 36047 ft 344 kts 269°
2026-05-05 16:32 34.41403 -106.06023 36046 ft 345 kts 269°
2026-05-05 16:32 34.42094 -106.11751 36046 ft 343 kts 269°
2026-05-05 16:33 34.42782 -106.17511 36046 ft 347 kts 269°
2026-05-05 16:33 34.43480 -106.23283 36046 ft 344 kts 270°
2026-05-05 16:34 34.44163 -106.28999 36046 ft 345 kts 269°
2026-05-05 16:34 34.44848 -106.34787 36050 ft 346 kts 269°
2026-05-05 16:35 34.45532 -106.40582 36051 ft 348 kts 268°
2026-05-05 16:35 34.46220 -106.46345 36052 ft 344 kts 268°
2026-05-05 16:36 34.46896 -106.52088 36049 ft 345 kts 269°
2026-05-05 16:36 34.47562 -106.57856 36050 ft 347 kts 269°
2026-05-05 16:37 34.48231 -106.63660 36046 ft 346 kts 269°
2026-05-05 16:37 34.48906 -106.69437 36039 ft 346 kts 269°
2026-05-05 16:38 34.49572 -106.75166 36035 ft 343 kts 268°
2026-05-05 16:38 34.50241 -106.81010 36028 ft 348 kts 269°
2026-05-05 16:39 34.50908 -106.86775 36028 ft 344 kts 268°
2026-05-05 16:39 34.51565 -106.92568 36030 ft 347 kts 268°
2026-05-05 16:40 34.52223 -106.98365 36035 ft 345 kts 268°
2026-05-05 16:40 34.52876 -107.04132 36030 ft 346 kts 269°
2026-05-05 16:41 34.53529 -107.09917 36041 ft 346 kts 268°
2026-05-05 16:41 34.54179 -107.15717 36040 ft 346 kts 268°
2026-05-05 16:42 34.54826 -107.21519 36054 ft 346 kts 268°
2026-05-05 16:42 34.55469 -107.27303 36047 ft 346 kts 268°
2026-05-05 16:43 34.56109 -107.33132 36047 ft 348 kts 268°
2026-05-05 16:43 34.56748 -107.38903 36046 ft 345 kts 268°
2026-05-05 16:44 34.57387 -107.44733 36048 ft 348 kts 268°
2026-05-05 16:44 34.58024 -107.50555 36055 ft 347 kts 268°
2026-05-05 16:45 34.58654 -107.56370 36057 ft 348 kts 268°
2026-05-05 16:45 34.59279 -107.62183 36061 ft 347 kts 268°
2026-05-05 16:46 34.59905 -107.67982 36066 ft 346 kts 268°
2026-05-05 16:46 34.60531 -107.73804 36071 ft 347 kts 268°
2026-05-05 16:47 34.61154 -107.79627 36070 ft 348 kts 268°
2026-05-05 16:47 34.61769 -107.85408 36078 ft 347 kts 268°
2026-05-05 16:48 34.62384 -107.91242 36087 ft 350 kts 267°
2026-05-05 16:48 34.62998 -107.97078 36084 ft 348 kts 268°
2026-05-05 16:49 34.63611 -108.02928 36089 ft 350 kts 267°
2026-05-05 16:49 34.64225 -108.08810 36084 ft 349 kts 268°
2026-05-05 16:50 34.64830 -108.14637 36083 ft 349 kts 268°
2026-05-05 16:50 34.65434 -108.20519 36083 ft 350 kts 267°
2026-05-05 16:51 34.66037 -108.26376 36084 ft 351 kts 267°
2026-05-05 16:51 34.66639 -108.32261 36082 ft 350 kts 268°
2026-05-05 16:52 34.67234 -108.38100 36078 ft 350 kts 267°
2026-05-05 16:52 34.67828 -108.43983 36082 ft 351 kts 268°
2026-05-05 16:53 34.68420 -108.49848 36074 ft 351 kts 268°
2026-05-05 16:53 34.69014 -108.55761 36072 ft 350 kts 267°
2026-05-05 16:54 34.69597 -108.61597 36080 ft 349 kts 267°
2026-05-05 16:54 34.70184 -108.67515 36069 ft 351 kts 266°
2026-05-05 16:55 34.70766 -108.73391 36074 ft 348 kts 266°
2026-05-05 16:55 34.71342 -108.79253 36067 ft 350 kts 267°
2026-05-05 16:56 34.71916 -108.85129 36071 ft 350 kts 267°
2026-05-05 16:56 34.72485 -108.91007 36062 ft 350 kts 266°
2026-05-05 16:57 34.73055 -108.96877 36050 ft 349 kts 267°
2026-05-05 16:57 34.73621 -109.02744 36048 ft 350 kts 267°
2026-05-05 16:58 34.74187 -109.08657 36038 ft 351 kts 267°
2026-05-05 16:58 34.74747 -109.14535 36042 ft 351 kts 266°
2026-05-05 16:59 34.75304 -109.20412 36039 ft 350 kts 266°
2026-05-05 16:59 34.75855 -109.26286 36047 ft 351 kts 266°
2026-05-05 17:00 34.76411 -109.32177 36035 ft 351 kts 266°
2026-05-05 17:00 34.76963 -109.38078 36036 ft 351 kts 266°
2026-05-05 17:01 34.77509 -109.43959 36033 ft 349 kts 266°
2026-05-05 17:01 34.78051 -109.49834 36034 ft 350 kts 267°
2026-05-05 17:02 34.78594 -109.55706 36033 ft 349 kts 266°
2026-05-05 17:02 34.79129 -109.61565 36031 ft 350 kts 266°
2026-05-05 17:03 34.79667 -109.67491 36030 ft 350 kts 266°
2026-05-05 17:03 34.80198 -109.73342 36025 ft 349 kts 266°
2026-05-05 17:04 34.80724 -109.79198 36022 ft 349 kts 266°
2026-05-05 17:04 34.81249 -109.85078 36021 ft 348 kts 265°
2026-05-05 17:05 34.81773 -109.90946 36022 ft 350 kts 265°
2026-05-05 17:05 34.82291 -109.96826 36019 ft 350 kts 266°
2026-05-05 17:06 34.82812 -110.02710 36021 ft 348 kts 265°
2026-05-05 17:06 34.83322 -110.08609 36015 ft 351 kts 265°
2026-05-05 17:07 34.83832 -110.14472 36014 ft 349 kts 265°
2026-05-05 17:07 34.84343 -110.20382 36008 ft 352 kts 266°
2026-05-05 17:08 34.84854 -110.26313 36004 ft 352 kts 266°
2026-05-05 17:08 34.85363 -110.32248 36009 ft 352 kts 266°
2026-05-05 17:09 34.85870 -110.38186 36011 ft 353 kts 265°
2026-05-05 17:09 34.86370 -110.44132 36010 ft 354 kts 266°
2026-05-05 17:10 34.86821 -110.50073 36007 ft 348 kts 263°
2026-05-05 17:10 34.86649 -110.55905 36013 ft 344 kts 257°
2026-05-05 17:11 34.86174 -110.61704 36014 ft 343 kts 257°
2026-05-05 17:11 34.85704 -110.67459 36010 ft 343 kts 256°
2026-05-05 17:12 34.85240 -110.73287 36004 ft 343 kts 256°
2026-05-05 17:12 34.84787 -110.79046 36000 ft 343 kts 256°
2026-05-05 17:13 34.84322 -110.84853 35998 ft 346 kts 256°
2026-05-05 17:13 34.83860 -110.90680 35998 ft 347 kts 256°
2026-05-05 17:14 34.83391 -110.96525 35995 ft 347 kts 256°
2026-05-05 17:14 34.82922 -111.02348 35986 ft 345 kts 256°
2026-05-05 17:15 34.82449 -111.08164 35989 ft 349 kts 256°
2026-05-05 17:15 34.81970 -111.14010 35983 ft 347 kts 256°
2026-05-05 17:16 34.81482 -111.19894 35984 ft 350 kts 256°
2026-05-05 17:16 34.80997 -111.25783 35992 ft 349 kts 257°
2026-05-05 17:17 34.80516 -111.31631 35991 ft 348 kts 256°
2026-05-05 17:17 34.80021 -111.37517 36007 ft 352 kts 256°
2026-05-05 17:18 34.79775 -111.40470 35770 ft 349 kts 257°
2026-05-05 17:18 34.79534 -111.43398 35995 ft 349 kts 257°
2026-05-05 17:18 34.79026 -111.49344 36005 ft 355 kts 257°
2026-05-05 17:19 34.78519 -111.55303 36002 ft 356 kts 256°
2026-05-05 17:19 34.78010 -111.61268 36019 ft 354 kts 256°
2026-05-05 17:20 34.77493 -111.67275 36028 ft 356 kts 257°
2026-05-05 17:20 34.76977 -111.73235 36026 ft 355 kts 256°
2026-05-05 17:21 34.76453 -111.79217 36026 ft 357 kts 256°
2026-05-05 17:22 34.75666 -111.88217 36009 ft 356 kts 256°
2026-05-05 17:22 34.75139 -111.94197 36007 ft 358 kts 257°
2026-05-05 17:23 34.74599 -112.00248 36004 ft 358 kts 257°
2026-05-05 17:23 34.74068 -112.06220 36008 ft 357 kts 257°
2026-05-05 17:24 34.73525 -112.12279 36011 ft 361 kts 256°
2026-05-05 17:24 34.72980 -112.18322 36011 ft 360 kts 257°
2026-05-05 17:25 34.72429 -112.24387 36015 ft 360 kts 257°
2026-05-05 17:25 34.71875 -112.30423 36002 ft 361 kts 256°
2026-05-05 17:26 34.71320 -112.36481 35997 ft 361 kts 257°
2026-05-05 17:26 34.70751 -112.42624 35995 ft 363 kts 257°
2026-05-05 17:27 34.70185 -112.48734 35996 ft 363 kts 257°
2026-05-05 17:27 34.69504 -112.54832 35989 ft 366 kts 255°
2026-05-05 17:28 34.68761 -112.60969 35986 ft 366 kts 256°
2026-05-05 17:28 34.68023 -112.67091 36006 ft 366 kts 256°
2026-05-05 17:29 34.67305 -112.73199 35997 ft 364 kts 256°
2026-05-05 17:29 34.66580 -112.79318 36023 ft 370 kts 255°
2026-05-05 17:30 34.65857 -112.85431 35980 ft 363 kts 255°
2026-05-05 17:30 34.65121 -112.91547 35984 ft 366 kts 255°
2026-05-05 17:31 34.64384 -112.97666 35982 ft 368 kts 256°
2026-05-05 17:31 34.63645 -113.03815 35978 ft 366 kts 256°
2026-05-05 17:32 34.62904 -113.09925 35981 ft 369 kts 256°
2026-05-05 17:32 34.62148 -113.16107 35971 ft 368 kts 256°
2026-05-05 17:33 34.61400 -113.22241 35978 ft 370 kts 256°
2026-05-05 17:33 34.60632 -113.28463 35974 ft 375 kts 256°
2026-05-05 17:34 34.59865 -113.34696 35969 ft 373 kts 256°
2026-05-05 17:34 34.59094 -113.40949 35971 ft 376 kts 257°
2026-05-05 17:35 34.58315 -113.47220 35968 ft 377 kts 256°
2026-05-05 17:35 34.57530 -113.53540 35968 ft 377 kts 256°
2026-05-05 17:36 34.56745 -113.59810 35969 ft 379 kts 256°
2026-05-05 17:36 34.55957 -113.66135 35968 ft 380 kts 256°
2026-05-05 17:37 34.55244 -113.72523 35961 ft 381 kts 257°
2026-05-05 17:37 34.54552 -113.78881 35963 ft 383 kts 257°
2026-05-05 17:38 34.53845 -113.85318 35954 ft 385 kts 257°
2026-05-05 17:38 34.53133 -113.91741 35950 ft 385 kts 257°
2026-05-05 17:39 34.52412 -113.98158 35951 ft 386 kts 257°
2026-05-05 17:39 34.51676 -114.04636 35944 ft 385 kts 257°
2026-05-05 17:40 34.50588 -114.10953 35947 ft 385 kts 252°
2026-05-05 17:40 34.49198 -114.17226 35944 ft 385 kts 252°
2026-05-05 17:41 34.47815 -114.23494 35937 ft 385 kts 252°
2026-05-05 17:41 34.46464 -114.29738 35934 ft 386 kts 252°
2026-05-05 17:42 34.45108 -114.36068 35930 ft 388 kts 252°
2026-05-05 17:42 34.43761 -114.42371 35926 ft 387 kts 252°
2026-05-05 17:43 34.42405 -114.48707 35931 ft 389 kts 252°
2026-05-05 17:43 34.41046 -114.55037 35925 ft 390 kts 253°
2026-05-05 17:44 34.39672 -114.61422 35929 ft 391 kts 253°
2026-05-05 17:44 34.38313 -114.67728 35929 ft 390 kts 252°
2026-05-05 17:45 34.36934 -114.74097 35932 ft 391 kts 252°
2026-05-05 17:45 34.35545 -114.80499 35930 ft 391 kts 252°
2026-05-05 17:46 34.34164 -114.86842 35928 ft 393 kts 252°
2026-05-05 17:46 34.32761 -114.93262 35924 ft 395 kts 252°
2026-05-05 17:47 34.31356 -114.99675 35928 ft 395 kts 252°
2026-05-05 17:47 34.29951 -115.06080 35926 ft 394 kts 252°
2026-05-05 17:48 34.28532 -115.12517 35924 ft 398 kts 252°
2026-05-05 17:48 34.27115 -115.18935 35925 ft 395 kts 253°
2026-05-05 17:49 34.25705 -115.25369 35923 ft 397 kts 253°
2026-05-05 17:49 34.24330 -115.31822 35928 ft 397 kts 253°
2026-05-05 17:50 34.22952 -115.38319 35930 ft 398 kts 253°
2026-05-05 17:50 34.21566 -115.44824 35931 ft 400 kts 253°
2026-05-05 17:51 34.20180 -115.51292 35938 ft 399 kts 254°
2026-05-05 17:51 34.18775 -115.57821 35936 ft 401 kts 254°
2026-05-05 17:52 34.17370 -115.64333 35939 ft 401 kts 253°
2026-05-05 17:52 34.16670 -115.67596 35722 ft 404 kts 254°
2026-05-05 17:52 34.16104 -115.70921 35473 ft 402 kts 258°
2026-05-05 17:52 34.15718 -115.74218 35234 ft 400 kts 260°
2026-05-05 17:53 34.15405 -115.77570 34986 ft 401 kts 261°
2026-05-05 17:53 34.15114 -115.80925 34730 ft 404 kts 261°
2026-05-05 17:53 34.14820 -115.84299 34490 ft 406 kts 261°
2026-05-05 17:53 34.14515 -115.87713 34057 ft 409 kts 261°
2026-05-05 17:54 34.14204 -115.91119 33538 ft 408 kts 261°
2026-05-05 17:54 34.13892 -115.94469 33027 ft 404 kts 261°
2026-05-05 17:54 34.13571 -115.97849 32641 ft 404 kts 261°
2026-05-05 17:54 34.13244 -116.01240 32291 ft 411 kts 261°
2026-05-05 17:55 34.12906 -116.04703 31903 ft 417 kts 261°
2026-05-05 17:55 34.12570 -116.08137 31523 ft 417 kts 262°
2026-05-05 17:55 34.12228 -116.11625 31142 ft 417 kts 262°
2026-05-05 17:55 34.11886 -116.15102 30712 ft 416 kts 262°
2026-05-05 17:56 34.11549 -116.18510 30328 ft 414 kts 262°
2026-05-05 17:56 34.11207 -116.21962 29902 ft 414 kts 262°
2026-05-05 17:56 34.10864 -116.25408 29443 ft 411 kts 263°
2026-05-05 17:56 34.10525 -116.28799 29014 ft 408 kts 263°
2026-05-05 17:57 34.10183 -116.32189 28563 ft 406 kts 262°
2026-05-05 17:57 34.09831 -116.35555 28110 ft 404 kts 262°
2026-05-05 17:57 34.09472 -116.38910 27605 ft 402 kts 262°
2026-05-05 17:57 34.09117 -116.42207 27091 ft 398 kts 262°
2026-05-05 17:58 34.08758 -116.45519 26576 ft 396 kts 263°
2026-05-05 17:58 34.08406 -116.48779 26059 ft 394 kts 263°
2026-05-05 17:58 34.08051 -116.52045 25541 ft 392 kts 263°
2026-05-05 17:58 34.07700 -116.55285 25012 ft 390 kts 263°
2026-05-05 17:59 34.07346 -116.58536 24468 ft 389 kts 263°
2026-05-05 17:59 34.07012 -116.61761 23932 ft 386 kts 264°
2026-05-05 17:59 34.06712 -116.64928 23373 ft 382 kts 265°
2026-05-05 17:59 34.06422 -116.68135 22801 ft 380 kts 264°
2026-05-05 18:00 34.06141 -116.71273 22248 ft 378 kts 264°
2026-05-05 18:00 34.05859 -116.74418 21691 ft 375 kts 264°
2026-05-05 18:00 34.05576 -116.77546 21130 ft 373 kts 264°
2026-05-05 18:00 34.05293 -116.80637 20582 ft 370 kts 264°
2026-05-05 18:01 34.05012 -116.83675 20027 ft 368 kts 264°
2026-05-05 18:01 34.04728 -116.86728 19478 ft 365 kts 264°
2026-05-05 18:01 34.04434 -116.89774 19004 ft 361 kts 264°
2026-05-05 18:01 34.04091 -116.92738 18563 ft 360 kts 262°
2026-05-05 18:02 34.03695 -116.95744 18116 ft 360 kts 262°
2026-05-05 18:02 34.03292 -116.98687 17681 ft 357 kts 262°
2026-05-05 18:02 34.02891 -117.01635 17298 ft 353 kts 262°
2026-05-05 18:02 34.02511 -117.04530 16964 ft 351 kts 262°
2026-05-05 18:03 34.02156 -117.07436 16630 ft 350 kts 263°
2026-05-05 18:03 34.01816 -117.10348 16297 ft 347 kts 263°
2026-05-05 18:03 34.01484 -117.13213 15968 ft 347 kts 263°
2026-05-05 18:03 34.01149 -117.16090 15635 ft 344 kts 263°
2026-05-05 18:04 34.00818 -117.18905 15301 ft 341 kts 263°
2026-05-05 18:04 34.00481 -117.21752 14966 ft 341 kts 263°
2026-05-05 18:04 34.00145 -117.24575 14636 ft 339 kts 263°
2026-05-05 18:04 33.99814 -117.27344 14305 ft 334 kts 263°
2026-05-05 18:05 33.99484 -117.30101 13968 ft 327 kts 263°
2026-05-05 18:05 33.99166 -117.32762 13660 ft 321 kts 263°
2026-05-05 18:05 33.98853 -117.35424 13384 ft 319 kts 263°
2026-05-05 18:05 33.98542 -117.38079 13104 ft 319 kts 263°
2026-05-05 18:06 33.98229 -117.40745 12825 ft 318 kts 263°
2026-05-05 18:06 33.98024 -117.42476 12643 ft 317 kts 263°
2026-05-05 18:06 33.97609 -117.45986 12309 ft 316 kts 263°
2026-05-05 18:06 33.97387 -117.48595 12056 ft 310 kts 269°
2026-05-05 18:07 33.97599 -117.51148 11800 ft 301 kts 283°
2026-05-05 18:07 33.98152 -117.53527 11554 ft 294 kts 288°
2026-05-05 18:07 33.98788 -117.55845 11302 ft 287 kts 289°
2026-05-05 18:07 33.99393 -117.58097 11056 ft 282 kts 288°
2026-05-05 18:08 33.99967 -117.60363 10810 ft 276 kts 287°
2026-05-05 18:08 34.00497 -117.62547 10573 ft 270 kts 287°
2026-05-05 18:08 34.01023 -117.64752 10309 ft 275 kts 287°
2026-05-05 18:08 34.01504 -117.66962 9905 ft 274 kts 282°
2026-05-05 18:09 34.01785 -117.69245 9461 ft 272 kts 275°
2026-05-05 18:09 34.01830 -117.71488 9257 ft 267 kts 269°
2026-05-05 18:09 34.01728 -117.73732 9221 ft 271 kts 266°
2026-05-05 18:09 34.01553 -117.76012 9171 ft 272 kts 265°
2026-05-05 18:10 34.01349 -117.78275 9164 ft 271 kts 264°
2026-05-05 18:10 34.01135 -117.80523 9165 ft 272 kts 264°
2026-05-05 18:10 34.00919 -117.82774 9164 ft 272 kts 264°
2026-05-05 18:10 34.00694 -117.85066 9020 ft 272 kts 264°
2026-05-05 18:11 34.00478 -117.87302 8986 ft 275 kts 264°
2026-05-05 18:11 34.00275 -117.89584 8661 ft 271 kts 264°
2026-05-05 18:11 34.00070 -117.91785 8902 ft 259 kts 264°
2026-05-05 18:11 33.99856 -117.94039 8801 ft 273 kts 264°
2026-05-05 18:12 33.99620 -117.96313 8367 ft 275 kts 264°
2026-05-05 18:12 33.99381 -117.98566 7716 ft 273 kts 263°
2026-05-05 18:12 33.99125 -118.00828 7077 ft 270 kts 263°
2026-05-05 18:12 33.98871 -118.03019 6642 ft 263 kts 264°
2026-05-05 18:13 33.98676 -118.05217 6307 ft 262 kts 265°
2026-05-05 18:13 33.98501 -118.07393 5837 ft 262 kts 265°
2026-05-05 18:13 33.98346 -118.09546 5381 ft 257 kts 265°
2026-05-05 18:13 33.98184 -118.11687 4914 ft 252 kts 265°
2026-05-05 18:14 33.97992 -118.13725 4567 ft 242 kts 264°
2026-05-05 18:14 33.97786 -118.15686 4219 ft 233 kts 262°
2026-05-05 18:14 33.97548 -118.17587 3930 ft 223 kts 261°
2026-05-05 18:14 33.97308 -118.19432 3546 ft 219 kts 261°
2026-05-05 18:15 33.97102 -118.21198 3227 ft 211 kts 263°
2026-05-05 18:15 33.96940 -118.22910 2983 ft 196 kts 264°
2026-05-05 18:15 33.96821 -118.24540 2852 ft 198 kts 265°
2026-05-05 18:15 33.96691 -118.26207 2743 ft 200 kts 264°
2026-05-05 18:16 33.96555 -118.27828 2429 ft 191 kts 264°
2026-05-05 18:16 33.96399 -118.29388 1953 ft 183 kts 263°
2026-05-05 18:16 33.96239 -118.30859 1607 ft 170 kts 262°
2026-05-05 18:16 33.96088 -118.32179 1410 ft 152 kts 262°
2026-05-05 18:17 33.95934 -118.33431 1180 ft 149 kts 262°
2026-05-05 18:17 33.95792 -118.34651 1042 ft 147 kts 262°
2026-05-05 18:17 33.95660 -118.35868 819 ft 146 kts 263°
2026-05-05 18:17 33.95541 -118.37074 595 ft 143 kts 263°
2026-05-05 18:18 33.95419 -118.38259 430 ft 142 kts 262°
2026-05-05 18:18 33.95297 -118.39432 279 ft 143 kts 262°
2026-05-05 18:18 33.95171 -118.40623 134 ft 138 kts 262°
2026-05-05 18:18 33.95066 -118.41599 123 ft 87 kts 263°
2026-05-05 18:19 33.95013 -118.42104 120 ft 41 kts 263°
2026-05-05 18:19 33.94955 -118.42345 118 ft 18 kts 242°
2026-05-05 18:19 33.94924 -118.42399 117 ft 4 kts 230°
2026-05-05 18:19 33.94858 -118.42476 116 ft 15 kts 209°
2026-05-05 18:20 33.94751 -118.42486 115 ft 15 kts 175°
2026-05-05 18:20 33.94671 -118.42437 115 ft 13 kts 107°
2026-05-05 18:20 33.94676 -118.42304 116 ft 19 kts 83°
2026-05-05 18:20 33.94695 -118.42109 118 ft 26 kts 81°
2026-05-05 18:21 33.94719 -118.41897 120 ft 25 kts 83°
2026-05-05 18:21 33.94739 -118.41692 122 ft 23 kts 83°
2026-05-05 18:21 33.94759 -118.41502 123 ft 22 kts 82°
2026-05-05 18:21 33.94792 -118.41319 123 ft 21 kts 81°
2026-05-05 18:22 33.94810 -118.41137 124 ft 22 kts 83°
2026-05-05 18:22 33.94831 -118.40951 124 ft 22 kts 84°
2026-05-05 18:22 33.94849 -118.40770 123 ft 21 kts 83°
2026-05-05 18:22 33.94868 -118.40592 122 ft 21 kts 83°
2026-05-05 18:23 33.94886 -118.40421 121 ft 19 kts 83°
2026-05-05 18:23 33.94900 -118.40262 120 ft 18 kts 84°
2026-05-05 18:23 33.94913 -118.40131 119 ft 9 kts 92°
2026-05-05 18:23 33.94890 -118.40089 119 ft 5 kts 143°
2026-05-05 18:24 33.94861 -118.40061 118 ft 4 kts 141°
2026-05-05 18:24 33.94833 -118.40057 118 ft 3 kts 202°
2026-05-05 18:24 33.94814 -118.40073 119 ft 2 kts 217°
2026-05-05 18:24 33.94800 -118.40086 119 ft 2 kts 219°
2026-05-05 18:25 33.94794 -118.40092 119 ft 0 kts 219°